Location: Linton
(52.0940°N, 0.2850°E)
Time: 23:14:33
(UTC+01:00)

ISS - Visible Passes

Search period start: 05 May 2021 00:00
Search period end: 15 May 2021 00:00
Orbit: 418 x 421 km, 51.6° (Epoch: 05 May)

Date Brightness Start Highest point End Pass type
(mag) Time Alt. Az. Time Alt. Az. Time Alt. Az.
05 May -2.2 02:34:13 25° SE 02:34:13 25° SE 02:36:29 10° E visible
05 May -3.8 04:07:09 13° WSW 04:10:06 72° SSE 04:13:29 10° E visible
06 May -1.2 01:48:19 12° ESE 01:48:19 12° ESE 01:48:49 10° E visible
06 May -3.7 03:21:16 30° SW 03:22:42 59° SSE 03:26:04 10° E visible
07 May -3.4 02:35:20 47° SSE 02:35:20 47° SSE 02:38:37 10° E visible
07 May -3.8 04:08:39 10° W 04:12:02 85° S 04:15:26 10° E visible
08 May -2.1 01:49:24 24° ESE 01:49:24 24° ESE 01:51:08 10° E visible
08 May -3.8 03:22:20 19° WSW 03:24:36 81° S 03:28:00 10° E visible
09 May -1.0 01:03:25 11° E 01:03:25 11° E 01:03:34 10° E visible
09 May -3.9 02:36:21 47° WSW 02:37:11 72° SSE 02:40:34 10° E visible
09 May -3.8 04:10:35 10° W 04:13:58 79° S 04:17:22 10° ESE visible
10 May -3.4 01:50:21 50° ESE 01:50:21 50° ESE 01:53:07 10° E visible
10 May -3.8 03:23:17 11° W 03:26:32 84° S 03:29:56 10° E visible
11 May -1.9 01:04:18 21° E 01:04:18 21° E 01:05:40 10° E visible
11 May -3.9 02:37:14 25° W 02:39:05 85° S 02:42:29 10° E visible
11 May -3.6 04:12:31 10° W 04:15:50 56° SSW 04:19:10 10° ESE visible
12 May -3.9 01:51:09 61° WSW 01:51:39 81° S 01:55:02 10° E visible
12 May -3.8 03:25:04 10° W 03:28:26 69° SSW 03:31:48 10° ESE visible
13 May -3.3 01:04:58 49° E 01:04:58 49° E 01:07:35 10° E visible
13 May -3.9 02:37:53 12° W 02:41:00 78° S 02:44:23 10° ESE visible
13 May -3.0 04:14:31 10° W 04:17:35 33° SSW 04:20:40 10° SE visible
14 May -2.2 00:18:33 25° E 00:18:33 25° E 00:20:08 10° E visible
14 May -3.9 01:51:27 21° W 01:53:33 84° S 01:56:57 10° E visible
14 May -3.4 03:27:00 10° W 03:30:14 43° SSW 03:33:28 10° SE visible
14 May -2.0 21:51:24 10° S 21:53:10 14° SE 21:54:57 10° ESE visible
14 May -3.6 23:26:08 10° SW 23:29:24 47° SSE 23:32:40 10° E visible
